Probability
0 0 0 0 0 0 0 0 0 0 0 0 0 0 0 0 0 0 0 0 0 0 0 0 0 0 0 0 0 0 0 0 0 0 0 0 0 0 0 0 0 0 0
0 0 0 0 0 0 0 0 0 0 0 0 0 0 0 0 0 0 0 0 0 0 0 0 0 0 0 0 0 0 0 0 0 0 0 0 0 0 0 0 0 0 0
0 0 0 0 0 0 0 0 0 0 0 0 0 0 0 0 0 0 0 0 0 0 0 0 0 0 0 0 0 0 0 0 0 0 0 0 0 0 0 0 0 0 0
0 0 0 0 0 0 0 0 0 0 0 0 0 0 0 0 0 0 0 0 0 0 0 0 0 0 0 0 0 0 0 0 0 0 0 0 0 0 0 0 0 0 0
0 0 0 0 0 0 0 0 0 0 0 0 0 0 0 0 0 0 0 0 0 0 0 0 0 0 0 0 0 0 0 0 0 0 0 0 0 0 0 0 0 0 0
0 0 0 0 0 0 0 0 0 0 0 0 0 0 0 0 0 0 0 0 0 0 0 0 0 0 0 0 0 0 0 0 0 0 0 0 0 0 0 0 0 0 0
0 0 0 0 0 0 0 0 0 0 0 0 0 0 0 0 0 0 0 0 0 0 0 0 0 0 0 0 0 0 0 0 0 0 0 0 0 0 0 0 0 0 0
0 0 0 0 0 0 0 0 0 0 0 0 0 0 0 0 0 0 0 0 0 0 0 0 0 0 0 0 0 0 0 0 0 0 0 0 0 0 0 0 0 0 0
0 0 0 0 0 0 0 0 0 0 0 0 0 0 0 0 0 0 0 0 0 0 0 0 0 0 0 0 0 0 0 0 0 0 0 0 0 0 0 0 0 0 0
0 0 0 0 0 0 0 0 0 0 0 0 0 0 0 0 0 0 0 0 0 0 0 0 0 0 0 0 0 0 0 0 0 0 0 0 0 0 0 0 0 0 0
0 0 0 0 0 0 0 0 0 0 0 0 0 0 0 0 0 0 0 0 0 0 0 0 0 0 0 0 0 0 0 0 0 0 0 0 0 0 0 0 0 0 0
0 0 0 0 0 0 0 0 0 0 0 0 0 0 0 0 0 0 0 0 0 0 0 0 0 0 0 0 0 0 0 0 0 0 0 0 0 0 0 0 0 0 0
0 0 0 0 0 0 0 0 0 0 0 0 0 0 0 0 0 0 0 0 0 0 0 0 0 0 0 0 0 0 0 0 0 0 0 0 0 0 0 0 0 0 0
0 0 0 0 0 0 0 0 0 0 0 0 0 0 0 0 0 0 0 0 0 0 0 0 0 0 0 0 0 0 0 0 0 0 0 0 0 0 0 0 0 0 0
0 0 0 0 0 0 0 0 0 0 0 0 0 0 0 0 0 0 0 0 0 0 0 0 0 0 0 0 0 0 0 0 0 0 0 0 0 0 0 0 0 0 0
0 0 0 0 0 0 0 0 0 0 0 0 0 0 0 0 0 0 0 0 0 0 0 0 0 0 0 0 0 0 0 0 0 0 0 0 0 0 0 0 0 0 0
0 0 0 0 0 0 0 0 0 0 0 0 0 0 0 0 0 0 0 0 0 0 0 0 0 0 0 0 0 0 0 0 0 0 0 0 0 0 0 0 0 0 0
0 0 0 0 0 0 0 0 0 0 0 0 0 0 0 0 0 0 0 0 0 0 0 0 0 0 0 0 0 0 0 0 0 0 0 0 0 0 0 0 0 0 0
0 0 0 0 0 0 0 0 0 0 0 0 0 0 0 0 0 0 0 0 0 0 0 0 0 0 0 0 0 0 0 0 0 0 0 0 0 0 0 0 0 0 0
0 0 0 0 0 0 0 0 0 0 0 0 0 0 0 0 0 0 0 0 0 0 0 0 0 0 0 0 0 0 0 0 0 0 0 0 0 0 0 0 0 0 0
0 0 0 0 0 0 0 0 0 0 0 0 0 0 0 0 0 0 0 0 0 0 0 0 0 0 0 0 0 0 0 0 0 0 0 0 0 0 0 0 0 0 0
0 0 0 0 0 0 0 0 0 0 0 0 0 0 0 0 0 0 0 0 0 0 0 0 0 0 0 0 0 0 0 0 0 0 0 0 0 0 0 0 0 0 0
0 0 0 0 0 0 0 0 0 0 0 0 0 0 0 0 0 0 0 0 0 0 0 0 0 0 0 0 0 0 0 0 0 0 0 0 0 0 0 0 0 0 0
0 0 0 0 0 0 0 0 0 0 0 0 0 0 0 0 0 0 0 0 0 0 0 0 0 0 0 0 0 0 0 0 0 0 0 0 0 0 0 0 0 0 0
0 0 0 0 0 0 0 0 0 0 0 0 0 0 0 0 0 0 0 0 0 0 0 0 0 0 0 0 0 0 0 0 0 0 0 0 0 0 0 0 0 0 0
0 0 0 0 0 0 0 0 0 0 0 0 0 0 0 0 0 0 0 0 0 0 0 0 0 0 0 0 0 0 0 0 0 0 0 0 0 0 0 0 0 0 0
Height
5637 5632 5630 5628 5628 5630 5633 5637 5641 5646 5651 5656 5661 5665 5668 5671 5674 5675 5677 5678 5678 5678 5678 5677 5675 5673 5671 5667 5664 5661 5658 5654 5651 5648 5643 5638 5633 5627 5622 5617 5612 5608 5602
5616 5611 5608 5607 5607 5610 5613 5618 5623 5629 5635 5641 5646 5651 5655 5658 5661 5663 5665 5666 5666 5667 5666 5665 5663 5661 5658 5654 5651 5647 5643 5639 5635 5631 5626 5620 5615 5609 5603 5598 5593 5587 5581
5598 5594 5591 5590 5591 5594 5598 5602 5608 5614 5621 5627 5633 5638 5642 5646 5649 5652 5653 5655 5655 5655 5654 5652 5650 5648 5644 5641 5637 5633 5628 5623 5618 5613 5609 5602 5596 5589 5583 5578 5572 5566 5559
5585 5581 5578 5578 5579 5582 5585 5590 5596 5602 5609 5615 5621 5626 5631 5635 5638 5641 5642 5643 5644 5643 5642 5640 5638 5635 5631 5627 5623 5618 5612 5607 5601 5595 5590 5584 5577 5569 5562 5557 5553 5544 5536
5578 5574 5572 5571 5572 5574 5577 5581 5587 5593 5600 5606 5612 5617 5621 5625 5629 5631 5632 5633 5633 5632 5630 5628 5625 5622 5617 5613 5608 5602 5597 5590 5583 5577 5571 5564 5556 5548 5541 5534 5529 5522 5514
5575 5571 5569 5568 5568 5570 5572 5576 5581 5587 5593 5599 5605 5610 5614 5617 5620 5621 5622 5622 5622 5621 5619 5616 5613 5609 5604 5599 5593 5587 5580 5572 5565 5558 5552 5544 5536 5527 5519 5511 5503 5497 5490
5575 5571 5569 5567 5567 5568 5571 5574 5579 5584 5589 5595 5600 5604 5607 5610 5612 5613 5613 5613 5612 5610 5607 5604 5600 5595 5590 5584 5578 5571 5562 5553 5546 5539 5531 5522 5513 5504 5496 5488 5478 5469 5461
5577 5573 5571 5569 5569 5570 5572 5575 5579 5583 5588 5592 5596 5599 5601 5603 5605 5605 5605 5604 5602 5599 5596 5592 5587 5581 5575 5569 5563 5554 5545 5535 5526 5517 5508 5499 5489 5479 5470 5462 5453 5445 5437
5580 5577 5574 5573 5573 5573 5575 5577 5581 5584 5587 5590 5593 5595 5597 5598 5598 5598 5597 5595 5592 5588 5584 5579 5574 5568 5561 5554 5546 5537 5527 5516 5505 5494 5484 5475 5465 5455 5446 5439 5431 5423 5418
5584 5581 5579 5577 5577 5577 5578 5580 5582 5584 5587 5589 5590 5591 5592 5592 5591 5590 5588 5585 5582 5577 5572 5566 5560 5553 5544 5535 5527 5517 5507 5496 5485 5474 5462 5451 5442 5434 5426 5419 5413 5407 5400
5587 5585 5583 5581 5581 5581 5581 5582 5583 5584 5585 5586 5587 5587 5586 5586 5584 5582 5579 5576 5571 5565 5559 5552 5544 5536 5526 5516 5506 5497 5486 5476 5465 5454 5443 5434 5426 5418 5412 5405 5399 5393 5387
5591 5588 5586 5585 5584 5583 5583 5583 5584 5584 5584 5584 5583 5582 5581 5579 5577 5574 5570 5565 5560 5554 5546 5538 5529 5519 5508 5497 5487 5476 5466 5456 5446 5437 5429 5422 5415 5408 5402 5395 5389 5382 5375
5593 5591 5589 5587 5586 5585 5585 5584 5583 5582 5581 5580 5578 5577 5575 5572 5569 5565 5560 5554 5548 5541 5532 5523 5512 5501 5489 5478 5467 5457 5448 5440 5433 5426 5419 5413 5406 5400 5394 5388 5381 5374 5367
5594 5592 5590 5589 5587 5585 5584 5582 5581 5579 5578 5576 5574 5571 5568 5565 5561 5556 5550 5543 5536 5527 5516 5506 5494 5483 5472 5462 5452 5444 5436 5430 5423 5417 5411 5405 5399 5393 5387 5381 5375 5368 5362
5594 5592 5590 5588 5586 5584 5582 5580 5578 5576 5573 5571 5568 5565 5561 5557 5552 5546 5539 5531 5522 5512 5501 5490 5479 5469 5459 5450 5443 5436 5429 5423 5418 5412 5406 5400 5394 5387 5381 5375 5368 5362 5356
5593 5591 5588 5586 5584 5581 5579 5577 5574 5571 5569 5565 5562 5558 5553 5548 5541 5534 5526 5518 5508 5497 5487 5477 5467 5458 5450 5443 5436 5430 5424 5419 5413 5407 5401 5395 5389 5382 5376 5369 5363 5357 5350
5591 5588 5586 5583 5581 5578 5575 5572 5569 5566 5563 5559 5554 5549 5544 5538 5531 5523 5515 5505 5495 5485 5476 5467 5459 5451 5444 5437 5431 5425 5420 5414 5409 5403 5396 5390 5384 5377 5371 5365 5358 5352 5346
5588 5585 5582 5580 5577 5574 5571 5567 5564 5560 5556 5551 5547 5541 5535 5528 5520 5512 5503 5493 5484 5475 5466 5459 5452 5445 5438 5432 5426 5421 5415 5410 5404 5398 5392 5385 5379 5373 5367 5360 5354 5348 5341
5584 5581 5578 5575 5572 5569 5565 5561 5557 5553 5548 5544 5538 5532 5526 5518 5510 5502 5492 5483 5473 5465 5458 5451 5445 5439 5433 5427 5422 5416 5411 5405 5399 5393 5387 5381 5374 5368 5362 5356 5349 5343 5336
5579 5576 5573 5570 5567 5563 5559 5555 5551 5546 5541 5536 5530 5524 5517 5509 5500 5491 5482 5473 5464 5457 5451 5445 5439 5433 5428 5422 5417 5412 5406 5400 5394 5388 5382 5376 5370 5363 5357 5351 5345 5338 5332
5574 5571 5568 5564 5561 5557 5553 5548 5544 5539 5533 5528 5522 5515 5508 5500 5491 5482 5472 5463 5456 5450 5444 5438 5433 5427 5422 5417 5412 5407 5401 5395 5390 5384 5377 5371 5365 5359 5353 5346 5340 5334 5327
5569 5565 5562 5558 5554 5550 5546 5541 5536 5531 5525 5519 5513 5506 5498 5490 5481 5472 5463 5455 5449 5443 5438 5432 5427 5422 5417 5412 5407 5401 5396 5390 5384 5379 5373 5367 5361 5355 5349 5342 5336 5329 5323
5563 5559 5556 5552 5548 5544 5539 5534 5529 5523 5517 5511 5505 5497 5489 5480 5471 5462 5455 5448 5442 5437 5432 5427 5422 5417 5412 5406 5401 5396 5390 5385 5379 5374 5368 5362 5357 5351 5345 5338 5332 5325 5319
5556 5553 5549 5545 5541 5536 5532 5526 5521 5515 5509 5503 5496 5488 5480 5471 5462 5454 5447 5441 5436 5431 5426 5421 5416 5411 5406 5401 5395 5390 5385 5379 5374 5368 5363 5358 5352 5346 5340 5334 5327 5321 5315
5550 5546 5543 5538 5534 5529 5524 5519 5513 5507 5501 5495 5487 5479 5471 5462 5453 5446 5440 5434 5429 5425 5420 5415 5410 5405 5400 5395 5389 5384 5379 5373 5368 5363 5358 5352 5347 5341 5335 5329 5323 5317 5311
5542 5539 5535 5531 5526 5521 5516 5511 5505 5499 5493 5486 5479 5470 5462 5453 5445 5438 5432 5427 5423 5418 5413 5408 5404 5399 5393 5388 5383 5378 5372 5367 5362 5357 5352 5347 5342 5336 5330 5325 5319 5313 5307
Wind_Speed
62 64 65 66 68 68 69 69 69 68 67 66 64 62 60 59 59 58 58 57 56 55 55 55 54 55 55 56 57 58 58 59 59 61 62 65 68 70 70 72 72 73 73
56 58 59 61 62 63 64 64 65 65 65 64 62 61 59 58 57 57 56 55 55 55 54 54 54 55 55 56 57 59 60 62 64 64 65 69 71 72 74 74 74 75 76
46 47 47 48 50 53 55 57 58 59 59 59 58 58 57 56 56 54 53 53 53 53 53 53 53 54 55 57 59 61 64 66 67 68 69 72 73 75 75 75 76 77 79
35 35 34 36 38 40 43 46 48 50 51 52 52 52 52 52 51 50 50 49 50 51 51 52 52 55 56 58 60 63 66 68 69 71 73 74 75 75 77 77 78 79 80
26 25 24 25 27 29 31 34 37 40 42 43 43 44 45 45 45 45 45 46 47 48 49 50 52 54 56 59 62 65 68 70 72 73 74 75 76 77 79 81 81 82 83
19 18 17 18 18 19 21 23 26 29 31 33 35 36 37 37 38 39 41 43 44 45 47 49 51 54 57 61 63 66 69 70 72 74 75 76 78 81 82 84 85 86 85
16 14 12 10 9 11 13 15 17 20 23 26 28 30 31 33 35 36 38 40 42 44 46 49 52 55 59 61 63 66 68 71 74 76 78 80 82 84 85 86 87 86 85
13 12 9 7 5 5 7 9 12 15 17 20 23 25 28 30 32 34 37 38 41 44 47 51 54 56 58 61 64 66 70 73 76 78 80 82 84 86 86 84 82 79 74
12 10 8 6 3 1 4 6 9 12 14 17 20 22 25 27 29 31 34 38 40 43 46 49 53 56 59 62 65 68 72 75 77 80 82 83 82 80 77 73 67 62 58
10 8 7 6 4 2 1 3 6 9 11 14 18 21 23 25 28 32 36 38 40 43 46 50 53 57 61 65 68 71 73 76 77 78 78 76 72 67 62 58 53 50 48
11 10 8 8 5 3 1 3 5 7 11 14 16 19 22 24 27 31 34 37 40 44 48 52 57 61 65 69 71 73 74 74 73 70 66 61 56 52 49 47 45 43 41
11 10 9 9 8 5 4 5 6 8 11 13 16 18 21 24 28 31 35 38 42 46 51 56 60 65 67 69 69 69 67 64 58 53 49 46 44 42 41 40 40 38 38
11 10 10 9 9 7 8 9 10 11 13 15 18 20 23 26 30 34 38 42 46 50 55 60 63 65 65 64 62 57 52 47 43 41 39 37 36 36 36 35 35 35 35
12 12 12 11 11 11 12 13 13 15 16 18 20 23 26 30 33 37 41 45 50 55 59 62 63 62 58 54 49 44 39 36 34 33 31 31 32 32 32 32 31 31 31
13 13 14 14 14 15 15 16 17 18 19 21 24 26 30 33 37 41 45 49 54 59 60 59 57 53 48 43 38 34 31 30 29 28 28 29 30 31 31 31 30 30 30
15 15 16 17 17 17 18 18 20 21 22 24 27 30 33 37 40 44 49 54 58 59 56 53 49 44 39 36 32 30 28 28 27 28 28 29 29 30 30 30 30 30 30
17 18 19 19 19 19 20 21 22 23 25 27 30 34 36 40 44 48 53 57 57 54 50 45 41 37 34 32 29 28 27 27 27 29 29 29 29 30 30 29 29 29 30
19 20 21 21 21 22 23 23 25 27 28 31 33 36 39 43 47 51 55 56 53 48 43 39 36 34 32 30 28 27 27 27 28 30 30 30 30 30 30 29 30 30 29
21 22 23 23 23 24 25 26 28 29 31 34 36 39 42 46 49 53 55 53 49 43 39 35 33 32 30 28 27 27 28 28 29 30 30 30 30 30 30 30 30 31 31
23 23 24 25 25 26 27 28 30 32 34 36 38 41 45 48 51 53 53 49 43 38 35 33 31 29 28 27 27 28 28 29 30 30 30 30 30 31 31 31 31 31 31
24 24 25 26 27 28 29 31 32 34 36 38 40 43 47 50 52 53 50 44 38 34 32 31 29 28 27 27 28 28 29 29 30 30 30 30 31 31 32 32 32 32 31
25 26 27 28 29 30 31 33 34 36 37 39 42 45 49 51 52 50 45 38 34 31 30 30 29 27 27 28 29 30 30 30 31 31 30 30 31 31 32 32 32 32 31
26 27 28 29 31 32 33 34 35 37 38 40 43 47 50 52 50 46 40 34 31 29 29 29 28 28 28 29 30 30 30 31 31 31 30 30 30 31 32 31 31 31 31
27 28 29 31 32 33 34 35 37 38 40 42 45 48 51 51 48 43 36 32 30 29 28 28 28 29 30 31 31 31 31 31 30 30 30 29 30 31 31 31 30 30 30
27 29 30 32 33 34 35 36 37 39 41 44 47 50 51 50 46 40 34 31 29 29 29 29 29 30 31 32 32 32 32 32 31 30 29 29 29 31 31 30 30 30 30
28 30 32 33 34 35 36 37 38 40 42 45 48 50 50 48 44 38 33 31 30 30 30 30 31 32 33 33 33 33 32 32 31 30 29 29 29 30 30 30 29 29 30
Wind_Direction
275 272 267 264 261 258 256 255 254 253 253 253 253 253 254 256 257 258 260 263 265 268 271 273 276 278 280 281 281 283 283 285 284 286 287 289 290 291 292 292 292 291 291
279 274 269 264 260 257 255 253 252 251 251 251 252 252 254 255 257 259 261 263 265 267 270 273 276 277 279 280 281 283 284 285 286 287 288 290 291 292 292 292 292 292 291
284 278 272 265 260 257 254 252 250 250 250 250 251 252 253 255 257 259 261 263 265 267 270 273 275 277 278 279 280 283 284 285 286 288 290 291 291 292 292 292 292 292 292
289 283 275 266 261 258 254 251 249 248 248 249 250 251 253 255 257 259 261 264 266 268 270 272 274 276 279 280 282 283 285 287 289 290 291 291 292 293 293 293 293 293 293
300 291 280 271 264 258 253 250 247 246 246 247 249 251 252 254 257 259 262 264 266 268 270 273 275 277 280 282 283 285 287 289 291 292 293 294 294 294 294 294 294 294 293
314 305 292 277 266 257 251 246 243 242 242 244 247 249 252 255 258 260 262 264 267 270 273 275 277 279 281 283 285 287 289 291 293 294 295 295 295 295 295 295 295 294 293
332 322 310 293 273 253 242 234 234 236 237 241 246 249 252 255 259 261 264 267 270 273 275 277 279 281 284 286 288 291 293 295 295 296 296 296 296 296 296 296 295 295 295
347 342 329 299 278 245 224 223 227 231 236 240 245 249 252 257 260 264 267 270 274 276 278 280 283 286 289 292 294 295 296 297 297 298 298 298 297 297 297 297 296 296 296
3 5 7 2 351 258 229 221 222 229 236 244 249 252 257 260 265 270 275 280 281 283 286 288 291 294 295 296 297 298 299 299 299 299 299 299 299 298 298 299 299 300 300
18 21 24 24 33 70 202 224 234 238 245 251 257 260 264 269 274 278 283 286 290 293 295 297 298 299 299 300 300 300 300 300 300 300 300 300 301 301 302 303 304 304 305
24 26 30 36 43 44 351 287 272 268 268 270 272 274 275 279 285 290 293 296 298 300 301 302 302 303 303 303 302 301 301 301 301 301 301 302 304 306 307 308 309 310 310
26 28 29 24 21 18 352 320 299 290 287 287 288 291 293 295 298 300 301 303 304 305 306 306 306 306 306 305 304 304 304 304 304 304 306 307 309 310 312 313 314 315 315
17 16 14 12 6 353 337 326 318 310 306 305 304 304 304 304 306 307 308 309 309 310 311 310 310 310 309 309 308 308 309 309 310 311 312 313 314 315 316 318 319 320 320
4 1 358 353 346 340 333 327 321 316 313 311 310 309 310 311 311 312 313 314 315 315 315 314 314 314 313 313 314 314 315 316 318 319 320 321 322 322 322 323 323 323 324
348 347 345 342 338 334 329 325 321 318 316 315 314 313 314 315 316 317 318 319 320 319 318 318 318 318 318 319 320 321 322 324 326 327 328 328 328 327 327 327 327 327 326
337 337 336 334 330 327 324 321 320 318 317 316 316 316 317 318 320 321 322 323 323 322 321 321 321 323 324 324 325 325 326 328 330 331 332 332 332 331 330 330 330 329 328
329 330 329 327 325 323 321 319 319 318 318 318 319 320 321 322 323 324 325 325 324 323 322 323 324 326 327 327 327 328 328 329 330 332 333 333 333 333 333 333 332 332 331
322 323 323 323 321 320 319 318 319 319 320 321 322 323 323 325 326 326 327 326 325 323 323 324 325 326 326 327 328 329 329 330 331 332 333 333 333 334 334 334 334 333 333
317 318 319 319 319 319 318 319 319 320 321 322 323 324 325 327 327 327 327 326 324 322 322 323 324 325 326 327 327 328 329 330 331 332 333 334 334 334 334 335 335 335 335
313 314 316 317 318 318 318 319 320 320 321 322 323 325 326 328 328 327 326 325 323 321 321 322 324 325 326 327 327 328 329 330 331 332 333 334 334 335 335 335 335 335 335
311 312 314 316 317 317 318 319 320 321 321 322 324 326 327 328 328 327 326 323 321 321 322 323 325 325 325 327 328 328 329 329 330 331 332 332 334 335 335 335 335 335 334
308 311 313 315 316 317 317 318 319 320 321 323 324 326 328 328 328 327 325 322 320 321 322 323 324 324 325 326 327 327 328 329 329 329 330 330 332 333 333 333 333 333 333
307 310 312 314 315 316 317 318 319 320 321 323 325 327 328 329 328 326 323 320 319 319 320 322 323 323 324 324 325 326 326 327 327 327 328 328 329 330 331 331 332 332 333
306 309 312 314 315 316 317 318 319 320 321 323 326 328 329 329 327 324 320 317 316 317 319 321 322 323 324 324 324 324 324 325 325 325 326 326 327 329 330 331 332 332 333
305 308 311 313 315 316 317 318 319 320 322 324 326 328 329 329 327 322 317 314 313 314 316 318 319 321 322 322 322 322 322 322 322 324 324 325 327 329 331 331 332 332 333
306 308 311 313 315 316 317 318 319 320 322 324 327 328 329 328 326 321 315 311 310 311 313 315 317 319 320 321 321 320 320 320 320 321 322 323 325 328 330 331 331 332 333